Location: NJAA Observatory
(40.6819°N, 74.8979°W)
Time: 20:14:13
(UTC-04:00)

Iridium 84 - Visible Passes

Search period start: 28 June 2016 00:00
Search period end: 08 July 2016 00:00
Orbit: 776 x 779 km, 86.4° (Epoch: 28 June)

Date Brightness Start Highest point End Pass type
(mag) Time Alt. Az. Time Alt. Az. Time Alt. Az.
28 Jun 5.7 03:15:16 10° N 03:20:29 71° E 03:24:04 20° SSE visible
28 Jun 7.4 04:58:15 10° NW 05:00:30 13° WNW 05:02:45 10° WSW visible
29 Jun 6.7 02:42:00 10° NNE 02:46:52 38° E 02:50:17 18° SE visible
29 Jun 6.8 04:23:14 10° NNW 04:27:19 24° W 04:30:43 13° SW visible
30 Jun 7.5 02:09:10 10° NNE 02:13:07 21° ENE 02:16:31 12° ESE visible
30 Jun 6.0 03:49:06 10° NNW 03:54:00 43° W 03:56:58 22° SW visible
01 Jul 8.1 01:37:29 10° NE 01:39:13 11° ENE 01:40:56 10° E visible
01 Jul 5.4 03:15:21 10° N 03:20:35 80° W 03:23:13 30° S visible
02 Jul 6.0 02:41:54 10° N 02:47:02 55° E 02:49:29 29° SSE visible
02 Jul 7.2 04:24:02 10° NW 04:27:13 17° WNW 04:29:56 11° WSW visible
03 Jul 7.0 02:08:47 10° NNE 02:13:21 30° E 02:15:46 21° ESE visible
03 Jul 6.5 03:49:30 10° NNW 03:53:59 30° W 03:56:13 22° WSW visible
04 Jul 7.7 01:36:13 10° NE 01:39:32 17° ENE 01:42:04 13° ESE visible
04 Jul 5.7 03:15:32 10° NNW 03:20:38 55° W 03:22:30 36° SW visible
05 Jul 5.5 02:41:54 10° N 02:47:10 81° E 02:48:49 45° SSE visible
05 Jul 7.6 04:25:37 10° WNW 04:27:05 11° WNW 04:28:32 10° W visible
06 Jul 6.4 02:08:35 10° N 02:13:33 43° E 02:15:08 34° SE visible
06 Jul 7.0 03:50:06 10° NNW 03:53:55 21° W 03:55:36 18° WSW visible
07 Jul 7.2 01:35:38 10° NNE 01:39:50 24° ENE 01:41:28 21° ESE visible
07 Jul 6.2 03:15:51 10° NNW 03:20:38 38° W 03:21:56 32° WSW visible
